ET-001A

导读

ET-001A(NORAD 编号69925)是近年发射入轨的人造航天器,由官方正式编入北美防空司令部空间目标编目体系,拥有独立的五位数NORAD识别码用于全球统一轨道跟踪与空间态势感知。该编号用于唯一标识这颗在轨目标,支撑轨道参数监测、位置预报与空间安全管理,其公开编目信息可通过CelesTrak、Space‑Track等航天数据平台查询,是空间目标监测网日常跟踪管理的在册近地轨道人造物体之一。

基本信息
目录编号:
69925
目录名称:
ET-001A
国际标识:
2026-156BJ
轨道中心:
EARTH
卫星名称:
ET-001A
卫星全名:
ET-001A
卫星状态:
在轨 (已飞行60 天)
发射日期:
2026-07-07 UTC
国别 :
美国 (US)
星等 :
--
轨道信息
数据来源 国际轨道数据
星历时间: 2026-09-04T19:32:42+0800
20小时前
查看轨道信息
半长轴: 6968.135km
偏心率: 0.0007385
轨道倾角: 97.744°
近地点辐角 328.323°
升交点赤经 146.983°
平近点角 31.755°
近地点: 584.852km
远地点: 595.144km
周期: 96.479分钟
每日圈数: 14.92547
详细信息
使用方式:
暂无
2D轨道图
3D轨道图
轨道高度分析图
轨道倾角分析图
轨道综合分析图
查看轨道综合分析图